User: anonymous   Login
Location: ROBOsky.com Wild Flower Ridge Observatory
(43.9736°N, 79.9739°W)
Time: 08:25:11
(UTC-04:00)
Language:

Cosmos 1190 Rocket - Orbit

View from above orbital plane
View from above orbital plane
View from above satellite
View from above satellite

Ground track
Ground track

The orbit data is extracted from the following two-line orbital elements,

1 11870U 80056B   14295.82953752  .00000317  00000-0  11666-3 0  8441
2 11870 074.0532 185.7383 0016198 015.3028 050.1372 14.36551563795748
Epoch (UTC): 22 October 2014 19:54:32
Eccentricity: 0.0016198
inclination: 74.0532°
perigee height: 758 km
apogee height: 781 km
right ascension of ascending node: 185.7383°
argument of perigee: 15.3028°
revolutions per day: 14.36551563
mean anomaly at epoch: 50.1372°
orbit number at epoch: 79574

The dashed part of the orbit path shows where the satellite is in the earth's shadow,  

DLR